AO-07 1 07530U 74089B 18158.83036635 -.00000029 00000-0 97534-4 0 9994 2 07530 101.6861 126.2908 0012167 355.7492 33.9275 12.53632878993421 UO-11 1 14781U 84021B 18158.55431327 .00000080 00000-0 16055-4 0 9998 2 14781 097.6498 195.1811 0009968 111.3172 248.9107 14.83008953822015 LO-19 1 20442U 90005G 18158.36671219 -.00000007 00000-0 13599-4 0 9993 2 20442 98.6097 96.9189 0011775 173.6594 186.4741 14.32897140482487 HUBBLE 1 20580U 90037B 18158.70260417 .00000383 00000-0 12474-4 0 9990 2 20580 28.4680 177.8060 0002883 42.9918 280.2673 15.09048521344035 MET-2/21 1 22782U 93055A 18158.41315674 .00000086 00000-0 64336-4 0 9997 2 22782 082.5493 101.6891 0022856 151.0900 327.9405 13.83810837250558 AO-27 1 22825U 93061C 18158.42514807 .00000006 00000-0 20049-4 0 9997 2 22825 098.8618 134.3638 0008820 022.4498 337.7068 14.30031826287904 IO-26 1 22826U 93061D 18158.44422705 .00000014 00000-0 23156-4 0 9996 2 22826 98.8560 134.4223 0009150 12.1412 347.9988 14.30363383288362 FO-29 1 24278U 96046B 18158.17370006 -.00000020 00000-0 12880-4 0 9991 2 24278 98.5184 358.3116 0351107 136.7899 226.1366 13.53084100 76887 NOAA-15 1 25338U 98030A 18158.57774129 .00000068 00000-0 47355-4 0 9998 2 25338 098.7694 175.0035 0009347 253.2976 106.7178 14.25856795043395 GO-32 1 25397U 98043D 18158.40291096 -.00000012 00000-0 13712-4 0 9996 2 25397 098.6493 099.0035 0002313 067.4326 292.7097 14.23646567034119 ISS 1 25544U 98067A 18158.63132183 .00001129 00000-0 24291-4 0 9995 2 25544 051.6422 066.3484 0003644 162.1292 265.8887 15.54143388117031 NO-44 1 26931U 01043C 18158.42679618 -.00000047 00000-0 13804-4 0 9997 2 26931 067.0517 254.5933 0007759 275.8843 084.1374 14.30507094871089 SO-50 1 27607U 02058C 18158.38413350 .00000023 00000-0 24097-4 0 9998 2 27607 64.5544 119.9991 0064243 330.5164 29.2320 14.75454614831519 CO-55 1 27844U 03031E 18158.88221023 .00000057 00000-0 45460-4 0 9996 2 27844 98.6864 167.6759 0010648 44.2103 315.9924 14.22116367774871 CO-57 1 27848U 03031J 18158.48706692 .00000046 00000-0 40800-4 0 9997 2 27848 098.6951 167.6814 0010698 054.7543 305.4634 14.21719983774653 RS-22 1 27939U 03042A 18158.84718990 .00000107 00000-0 27723-4 0 9991 2 27939 97.9892 298.2233 0013172 172.2433 342.1645 14.66691560785448 NOAA-18 1 28654U 05018A 18158.54271168 -.00000007 00000-0 21429-4 0 9996 2 28654 099.1454 193.7993 0014963 151.0277 209.1727 14.12377631672329 CO-58 1 28895U 05043F 18158.36298702 .00000137 00000-0 35038-4 0 9998 2 28895 097.9080 310.2173 0018280 100.1464 260.1802 14.63551010672201 Falconsat-3 1 30776U 07006E 18158.57659911 .00002422 00000-0 72221-4 0 9990 2 30776 035.4365 327.9280 0003973 297.1845 062.8476 15.34509913622845 CO-65 1 32785U 08021C 18158.49970467 .00000252 00000-0 32978-4 0 9997 2 32785 097.5472 171.1404 0014681 072.8787 287.4037 14.88126449547664 AAUSAT2 1 32788U 08021F 18158.51292410 .00000252 00000-0 28447-4 0 9994 2 32788 097.5221 185.4217 0012609 028.5321 331.6587 14.94351833548633 DO-64 1 32789U 08021G 18158.61111571 .00001127 00000-0 81247-4 0 9993 2 32789 097.5129 213.6633 0011503 338.5294 021.5450 15.06068395550248 CO-66 1 32791U 08021J 18158.46992522 .00000425 00000-0 48755-4 0 9999 2 32791 097.5363 176.4491 0014729 055.2244 305.0358 14.90558723547985 RS-30 1 32953U 08025A 18158.62259566 .00000012 00000-0 18226-4 0 9997 2 32953 082.5040 018.6300 0018240 229.5967 130.3522 12.43083197455587 PRISM 1 33493U 09002B 18158.67176756 .00000782 00000-0 74834-4 0 9998 2 33493 98.1321 60.3986 0015054 352.5813 7.5191 14.96220856508922 NOAA-19 1 33591U 09005A 18158.57593892 .00000110 00000-0 85091-4 0 9995 2 33591 099.1411 136.4119 0013973 358.5197 001.5930 14.12283758480555 TISAT-1 1 36799U 10035E 18158.31676020 .00000503 00000-0 57192-4 0 9997 2 36799 098.1051 294.2715 0011178 237.1562 122.8580 14.90802844428486 JUGNU 1 37839U 11058B 18158.87389653 .00000298 00000-0 17080-4 0 9996 2 37839 19.9612 93.7198 0019128 144.0209 256.9839 14.12620739344051 SRMSAT 1 37841U 11058D 18158.33280350 .00000298 00000-0 18618-4 0 9992 2 37841 019.9707 146.0020 0011888 023.4647 115.9684 14.10607762343393 AO-71 1 37854U 11061E 18158.77648611 .00002069 00000-0 11462-3 0 9993 2 37854 101.7027 218.9257 0163750 101.4504 260.5148 15.05449590360410 HRBE 1 37855U 11061F 18158.43125357 .00002118 00000-0 11507-3 0 9999 2 37855 101.7163 215.9764 0176751 111.1550 250.8651 15.04425927359715 ALMASAT-1 1 38078U 12006B 18158.66229411 .00032273 39524-5 28630-3 0 9996 2 38078 69.4324 243.1128 0239046 121.0509 33.6638 15.40394060339184 HORYU-2 1 38340U 12025D 18158.51288357 .00000174 00000-0 33704-4 0 9993 2 38340 098.3663 179.9016 0010357 238.1008 121.9193 14.75557758315274 RS-40 1 38735U 12041C 18158.53249760 .00000024 00000-0 10601-3 0 9990 2 38735 082.4760 102.6392 0016714 339.7417 020.2998 12.42576421265806 BEESAT-3 1 39134U 13015E 18158.45716087 .00001065 00000-0 59848-4 0 9991 2 39134 64.8622 158.3836 0013167 213.7432 146.2858 15.19157252283425 BEESAT-2 1 39136U 13015G 18158.42940473 .00000674 00000-0 44789-4 0 9991 2 39136 64.8681 174.4628 0022512 238.8465 121.0453 15.16139537283119 ZACUBE-1 1 39417U 13066B 18158.51752378 .00000184 00000-0 29609-4 0 9994 2 39417 097.5876 187.6731 0058992 185.3273 174.7320 14.80937203245364 TRITON-1 1 39427U 13066M 18158.75558874 .00000196 00000-0 39697-4 0 9997 2 39427 97.6410 155.3064 0112576 289.8845 69.0259 14.67668882243190 GOMX-1 1 39430U 13066Q 18158.84002709 .00000204 00000-0 45987-4 0 9991 2 39430 97.6968 136.3864 0151661 0.6712 359.4665 14.59081209241793 LO-74 1 39440U 13066AA 18158.51193964 .00000206 00000-0 35876-4 0 9998 2 39440 097.6014 174.3233 0079337 226.1848 133.2785 14.75673944243291 AO-73 1 39444U 13066AE 18158.51856243 .00000265 00000-0 39057-4 0 9998 2 39444 097.5885 189.1870 0058251 180.7049 179.4093 14.81715964243639 SPROUT 1 39770U 14029E 18158.76823328 .00000658 00000-0 79894-4 0 9994 2 39770 97.8769 259.8932 0007735 233.2376 126.8129 14.86846372218964 DUCHIFAT-1 1 40021U 14033M 18158.59157147 .00000447 00000-0 51811-4 0 9995 2 40021 097.9165 077.2930 0012138 204.5659 155.4982 14.90308244215524 NANOSATCBR1 1 40024U 14033Q 18158.35919758 .00000288 00000-0 36155-4 0 9993 2 40024 097.9101 075.3232 0011366 207.2227 152.8396 14.89571217214893 EO-79 1 40025U 14033R 18158.73758449 .00000220 00000-0 29620-4 0 9999 2 40025 97.9060 74.1552 0011578 210.7727 149.2812 14.88715812215387 DTUSAT-2 1 40030U 14033W 18158.49839560 .00000241 00000-0 32089-4 0 9998 2 40030 097.9007 072.6247 0011098 205.9940 154.0720 14.88323968214780 EO-80 1 40032U 14033Y 18158.55592098 .00000234 00000-0 31362-4 0 9994 2 40032 097.9014 072.6850 0011048 206.3272 153.7384 14.88261266214771 ANTELSAT 1 40034U 14033AA 18158.63211621 .00000182 00000-0 34765-4 0 9997 2 40034 097.8125 035.6182 0057649 228.0259 131.6031 14.73924759212741 VELOX-1 1 40057U 14034E 18158.75955328 .00000358 00000-0 57934-4 0 9993 2 40057 98.2029 269.6441 0011036 6.1906 353.9441 14.77428187212253 DAURIA DX 1 1 40071U 14037C 18158.82638144 .00000135 00000-0 24874-4 0 9994 2 40071 98.3748 289.7706 0008488 0.4846 359.6374 14.81161585211610 UKUBE-1 1 40074U 14037F 18158.44096363 .00000366 00000-0 51388-4 0 9992 2 40074 098.3876 295.2068 0004469 005.1852 354.9408 14.83801815211853 HODOYOSHI-1 1 40299U 14070B 18158.54142360 .00000803 00000-0 37189-4 0 9997 2 40299 097.3768 240.4847 0011497 288.4764 196.6675 15.22899185199016 CHUBUSAT-1 1 40300U 14070C 18158.55868483 .00000734 00000-0 35504-4 0 9994 2 40300 097.3642 236.4602 0018622 298.8309 173.1445 15.21569918198810 QSAT-EOS 1 40301U 14070D 18158.41591890 .00001774 00000-0 73996-4 0 9997 2 40301 097.3584 237.5723 0024884 288.4379 191.4100 15.24739843198934 FIREBIRD FU3 1 40377U 15003B 18158.55753201 .00001396 00000-0 61205-4 0 9998 2 40377 099.0879 058.3961 0130087 262.7322 095.9105 15.17218606184852 FIREBIRD FU4 1 40378U 15003C 18158.48049484 .00001426 00000-0 62366-4 0 9995 2 40378 099.0881 058.3610 0130306 262.8824 095.7573 15.17228082184844 GRIFEX 1 40379U 15003D 18158.29851150 .00001084 00000-0 51845-4 0 9996 2 40379 99.0909 54.3352 0137280 276.0738 82.4861 15.14336581184602 NO-84 1 40654U 15025D 18158.31465168 .00011238 00000-0 17916-3 0 03186 2 40654 054.9914 080.9173 0161870 084.5460 277.4055 15.40380525054328 NO-83 1 40655U 15025E 18158.18494335 .00023294 00000-0 24301-3 0 03675 2 40655 054.9753 025.7718 0112213 116.4597 244.7923 15.56904213054723 DEORBITSAIL 1 40719U 15032E 18158.28977974 .00000382 00000-0 62080-4 0 9991 2 40719 097.9462 051.9671 0018006 080.0204 280.3037 14.76435316156711 NUDT-PHONESAT 1 40900U 15049B 18158.57064894 .00002188 00000-0 10067-3 0 9994 2 40900 097.4409 166.9338 0015205 066.5466 293.7366 15.21296711150456 XW-2A 1 40903U 15049E 18158.82311831 .00001934 00000-0 49656-4 0 9996 2 40903 97.3847 193.5850 0015850 67.5338 292.7584 15.40476573152364 XW-2C 1 40906U 15049H 18158.80856187 .00000644 00000-0 37730-4 0 9992 2 40906 97.4596 162.4720 0016635 65.3442 294.9520 15.15187370150070 XW-2D 1 40907U 15049J 18158.82798246 .00000687 00000-0 39845-4 0 9992 2 40907 97.4570 162.1889 0015969 63.4851 296.8017 15.15338268150085 LILACSAT-2 1 40908U 15049K 18158.55883407 .00000402 00000-0 25998-4 0 9996 2 40908 097.4682 161.2961 0017624 065.5652 294.7416 15.13509380149916 XW-2F 1 40910U 15049M 18158.84993470 .00001110 00000-0 60183-4 0 9995 2 40910 97.4571 163.5085 0016641 59.3745 300.9126 15.16528520150044 XW-2B 1 40911U 15049N 18158.84514369 .00000704 00000-0 40791-4 0 9993 2 40911 97.4605 162.7401 0015878 63.9906 296.2959 15.15282496149987 DCBB 1 40912U 15049P 18158.48030587 .00001674 00000-0 83595-4 0 9995 2 40912 097.4508 165.9457 0016839 049.4957 104.6224 15.18747355150194 TW-1C 1 40926U 15051B 18158.84308802 .00008326 00000-0 15574-3 0 9993 2 40926 97.1840 201.2298 0008381 319.8245 155.0310 15.48936533151861 TW-1A 1 40928U 15051D 18158.77605709 .00002754 00000-0 74028-4 0 9992 2 40928 97.1859 192.9517 0011854 4.9362 84.4862 15.38680461151338 IO-86 1 40931U 15052B 18158.66963747 .00000685 00000-0 62978-5 0 9997 2 40931 5.9969 218.0457 0013627 236.7831 123.0352 14.76577212145595 LQSat 1 40958U 15057A 18158.45175276 .00000038 00000-0 13596-4 0 9993 2 40958 097.9404 231.8067 0018536 012.8458 347.3221 14.73033599143429 AO-85 1 40967U 15058D 18158.44138214 .00000147 00000-0 33654-4 0 03503 2 40967 064.7782 220.8615 0206102 316.5742 041.9222 14.75718463052211 ATHENOXAT-1 1 41168U 15077C 18158.99217826 .00002089 00000-0 77692-4 0 9991 2 41168 14.9873 87.5891 0012174 273.7302 167.7790 15.12771818136986 ChubuSat-2 1 41338U 16012B 18157.99921139 .00000317 00000-0 18015-4 0 9994 2 41338 31.0044 18.3765 0013908 331.6581 28.3297 14.99981637126301 ChubuSat-3 1 41339U 16012C 18158.74615272 .00000358 00000-0 21171-4 0 9999 2 41339 31.0126 12.2393 0013826 346.1911 13.8345 15.00170025126408 Horyu-4 1 41340U 16012D 18158.61087728 .00000488 00000-0 30579-4 0 9992 2 41340 031.0063 007.8859 0014061 357.3640 002.6920 15.00986796126452 OUFTI-1 1 41458U 16025C 18158.72854651 .00002040 00000-0 10969-3 0 9991 2 41458 98.1350 221.0719 0170015 179.0951 181.0621 15.04623015116013 e-st@r-II 1 41459U 16025D 18158.86676154 .00001226 00000-0 68080-4 0 9990 2 41459 98.1346 221.0627 0171034 179.2107 180.9400 15.04353018116021 AAUSAT4 1 41460U 16025E 18158.85423219 .00003298 00000-0 17292-3 0 9992 2 41460 98.1302 221.5347 0162863 175.3348 184.9446 15.05785895116086 LO-87 1 41557U 16033B 18158.67669194 .00001349 00000-0 52071-4 0 9992 2 41557 97.4376 242.9119 0014188 190.4412 169.6535 15.27981361112700 NuSat2 1 41558U 16033C 18158.54788330 .00001356 00000-0 52029-4 0 9994 2 41558 097.4392 242.8868 0013112 183.2293 176.8864 15.28170427112677 Lapan A3 1 41603U 16040E 18158.59570876 .00000080 00000-0 69489-5 0 9994 2 41603 097.4117 220.2937 0011903 275.9029 190.1646 15.19565104108629 Swayam 1 41607U 16040J 18158.39285691 .00001550 00000-0 70420-4 0 9993 2 41607 097.4136 221.5164 0012047 273.1450 086.8408 15.22210752108614 Pratham 1 41783U 16059A 18158.42496899 .00000060 00000-0 20883-4 0 9999 2 41783 098.1180 220.1424 0034806 125.1426 235.3046 14.62925280090538 AlSat 1N 1 41789U 16059G 18158.73223192 .00000107 00000-0 29343-4 0 9995 2 41789 98.1190 221.6486 0029634 116.0871 244.3381 14.64157489 90638 ScatSat 1 41790U 16059H 18158.58880442 .00000003 00000-0 11974-4 0 9993 2 41790 098.2603 206.5534 0019405 118.9037 241.4107 14.50858012089790 TY-1 1 41844U 16066D 18158.67956017 .00001769 00000-0 77438-4 0 9990 2 41844 97.4058 165.7713 0017458 71.9598 19.2956 15.23235086 87439 Pegasus-1 1 41846U 16066F 18158.51154578 .00000194 00000-0 41170-4 0 9992 2 41846 098.7544 186.7688 0367066 275.6916 080.2533 14.37337594082513 CAS-2T 1 41847U 16066G 18158.50832207 .00000036 00000-0 16997-4 0 9998 2 41847 098.7504 187.2047 0365065 273.2634 082.6858 14.37895400082930 TO-89 1 41932U 98067KU 18158.72984958 .00034635 00000-0 22328-3 0 9995 2 41932 51.6341 29.5615 0004438 157.0984 203.0215 15.75792330 79272 AOBA-V3LOX3 1 41935U 98067KX 18158.70620221 .00051334 00000-0 27716-3 0 9997 2 41935 51.6363 25.5947 0004357 164.7933 195.3201 15.79597305 79426 EO-88 1 42017U 17008BX 18158.57853092 .00001586 00000-0 67560-4 0 9990 2 42017 097.4486 223.6927 0007888 062.2336 297.9700 15.24421224072604 HAVELSAT 1 42700U 98067LH 18158.73360886 .00027544 00000-0 22124-3 0 9993 2 42700 51.6359 43.1088 0003897 193.1716 166.9181 15.70757099 60539 SOMP2 1 42701U 98067LJ 18158.71550309 .00024127 00000-0 20243-3 0 9997 2 42701 51.6365 44.4911 0003909 191.4693 168.6216 15.69786991 60501 PHOENIX 1 42706U 98067LP 18158.55297884 .00021274 00000-0 18644-3 0 9992 2 42706 051.6363 045.6635 0002210 131.6812 228.4374 15.68814067060395 X-CubeSat 1 42707U 98067LQ 18158.78105389 .00030123 00000-0 23665-3 0 9998 2 42707 51.6332 42.6128 0002465 138.1691 221.9496 15.71242140 60445 qbee 1 42708U 98067LR 18158.78651559 .00027819 00000-0 22675-3 0 9992 2 42708 51.6373 43.4562 0002385 138.0783 222.0397 15.70403007 60390 ZA-AeroSat 1 42713U 98067LU 18158.76502894 .00020872 00000-0 19285-3 0 9998 2 42713 51.6358 47.0688 0003219 126.7989 233.3303 15.67522399 60054 LINK 1 42714U 98067LV 18158.71136191 .00064973 00000-0 35597-3 0 9991 2 42714 51.6264 36.7905 0003486 143.9367 216.1869 15.79181547 60296 UPSat 1 42716U 98067LX 18158.09613500 .00047660 00000-0 31462-3 0 9999 2 42716 051.6334 042.5478 0002998 177.1119 182.9898 15.75102121060184 SpaceCube 1 42717U 98067LY 18158.23962101 .00031545 00000-0 25723-3 0 9998 2 42717 51.6341 46.5344 0002820 181.0687 179.0305 15.70320642 59382 Hoopoe 1 42718U 98067LZ 18158.28870166 .00042832 00000-0 31242-3 0 9997 2 42718 51.6349 43.8637 0002962 176.6746 183.4273 15.72825987 59421 Challenger 1 42721U 98067MA 18158.59062525 .00119346 00000-0 48449-3 0 9999 2 42721 051.6288 032.9545 0005207 189.4887 170.6019 15.85357177059293 NJUST-1 1 42722U 98067MB 18158.56481214 .00019134 00000-0 18395-3 0 9998 2 42722 051.6364 049.5022 0005375 181.2483 178.8500 15.66591939059077 UNSW-EC0 1 42723U 98067MC 18158.29373931 .00047748 00000-0 33779-3 0 9990 2 42723 51.6373 43.9287 0004923 176.5710 183.5323 15.73485753 59101 DUTHsat 1 42724U 98067MD 18158.53932379 .00095138 00000-0 42831-3 0 9990 2 42724 051.6333 034.9339 0004823 187.0869 173.0067 15.83280265059186 LO-90 1 42725U 98067ME 18158.81267554 .00022807 00000-0 19803-3 0 9994 2 42725 51.6366 45.9000 0004526 180.0665 180.0333 15.68985926 59045 nSIGHT1 1 42726U 98067MF 18158.71365804 .00007143 00000-0 88059-4 0 9997 2 42726 51.6395 55.0552 0005133 187.1294 172.9628 15.61408567 58920 SNUSAT 1B 1 42727U 98067MG 18158.76012384 .00025333 00000-0 21993-3 0 9999 2 42727 51.6348 46.2483 0006673 152.3316 207.8037 15.68908015 59005 QBITO 1 42728U 98067MH 18158.71160185 .00029676 00000-0 23975-3 0 9994 2 42728 51.6386 44.5207 0002860 167.6793 192.4275 15.70578618 58866 Aalto-2 1 42729U 98067MJ 18158.69233336 .00030100 00000-0 24049-3 0 9998 2 42729 51.6360 44.3355 0002892 166.9965 193.1107 15.70837385 58871 SUSat 1 42730U 98067MK 18158.73918566 .00024438 00000-0 20805-3 0 9993 2 42730 51.6362 45.3946 0002899 168.7320 191.3743 15.69427057 58857 i-INSPIRE II 1 42731U 98067ML 18158.54454599 .00047118 00000-0 32450-3 0 9993 2 42731 051.6341 041.7789 0006197 145.6393 214.5008 15.74108943058936 PolyITAN-2-SAU 1 42732U 98067MM 18158.78508421 .00028392 00000-0 22509-3 0 9991 2 42732 51.6359 43.4229 0006269 141.3287 218.8161 15.71039983 58930 ExAlta-1 1 42734U 98067MP 18158.72112317 .00047893 00000-0 32141-3 0 9992 2 42734 51.6327 40.6839 0006575 164.7893 195.3305 15.74698592 58912 Aoxiang-1 1 42735U 98067MQ 18158.78706440 .00019884 00000-0 18850-3 0 9995 2 42735 51.6359 47.9642 0005904 180.7508 179.3480 15.66908055 60240 BeEagleSat 1 42736U 98067MR 18158.78841175 .00022611 00000-0 20198-3 0 9991 2 42736 51.6357 46.4626 0005627 180.1144 179.9852 15.68289918 58953 CAS-4B 1 42759U 17034B 18158.79968587 .00000304 00000-0 32321-4 0 9996 2 42759 43.0169 134.8021 0008708 39.9724 19.5008 15.09296753 54030 CAS-4A 1 42761U 17034D 18159.05067318 .00000215 00000-0 26784-4 0 9998 2 42761 43.0185 133.1981 0008938 42.4430 39.2863 15.09372204 54063 UCLSat 1 42765U 17036A 18158.60930156 .00001258 00000-0 58333-4 0 9996 2 42765 097.4014 218.6122 0013573 108.1285 252.1431 15.21830937053844 NIUSat 1 42766U 17036B 18158.59057552 .00001065 00000-0 51890-4 0 9992 2 42766 097.4015 217.8908 0017770 097.3662 262.9593 15.20376771053073 LituanicaSAT 2 1 42768U 17036D 18158.59779236 .00002183 00000-0 10021-3 0 9996 2 42768 097.4029 218.2062 0017618 099.7515 260.5712 15.21340551053109 Aalto 1 1 42775U 17036L 18158.16318752 .00000936 00000-0 45532-4 0 9999 2 42775 097.4008 217.6793 0015989 099.0075 261.2971 15.20736036052976 URSA MAIOR 1 42776U 17036M 18158.61084380 .00000949 00000-0 46011-4 0 9994 2 42776 097.4015 218.1682 0015833 097.7858 262.5176 15.20812824053040 Max Valier Sat 1 42778U 17036P 18158.57752578 .00001117 00000-0 52916-4 0 9991 2 42778 097.4040 218.4499 0014467 102.5298 257.7557 15.21293053053041 Pegasus 1 42784U 17036V 18158.38250777 .00001322 00000-0 61477-4 0 9991 2 42784 97.4017 218.3176 0014064 108.9809 251.2952 15.21641461 53020 NUDATSat 1 42787U 17036Y 18158.56742832 .00001868 00000-0 84202-4 0 9998 2 42787 097.4025 218.6914 0013640 108.1588 252.1134 15.22208455052901 SUCHAI 1 1 42788U 17036Z 18158.60447853 .00001466 00000-0 67300-4 0 9993 2 42788 097.4019 218.6300 0013707 108.1569 252.1160 15.21906618053137 SKCUBE 1 42789U 17036AA 18158.60366515 .00001368 00000-0 63082-4 0 9993 2 42789 097.4017 218.6248 0013536 108.0806 252.1906 15.21870787053056 VZLUSAT 1 1 42790U 17036AB 18158.42539391 .00001887 00000-0 84969-4 0 9992 2 42790 097.4019 218.5593 0013230 108.9740 251.2931 15.22229397053031 VENTA 1 1 42791U 17036AC 18158.51977050 .00001386 00000-0 63797-4 0 9991 2 42791 097.4016 218.5813 0013142 108.8801 251.3861 15.21923032053032 Robusta 1B 1 42792U 17036AD 18158.83620363 .00001436 00000-0 65793-4 0 9993 2 42792 97.4015 218.9141 0013095 108.2209 252.0454 15.22012513 53101 D-SAT 1 42794U 17036AF 18158.58011431 .00000160 00000-0 19682-4 0 9996 2 42794 097.5920 213.5991 0125921 314.7352 044.3669 14.90866580052292 BIRD-J 1 42820U 98067MU 18158.15217595 .00024659 00000-0 22811-3 0 9997 2 42820 51.6355 51.9718 0003922 119.9004 240.2383 15.67377711 52288 BIRD-G 1 42821U 98067MV 18158.71109868 .00021817 00000-0 20644-3 0 9998 2 42821 51.6358 49.7057 0003884 124.1172 236.0193 15.66897106 52347 BIRD-M 1 42822U 98067MW 18158.75789419 .00021305 00000-0 19982-3 0 9994 2 42822 51.6359 49.2718 0003879 126.6307 233.5046 15.67134461 52358 BIRD-B 1 42823U 98067MX 18158.75445440 .00021320 00000-0 19916-3 0 9992 2 42823 51.6365 49.2657 0005953 145.8285 214.3096 15.67222819 52358 BIRD-N 1 42824U 98067MY 18158.71366294 .00021898 00000-0 20605-3 0 9995 2 42824 51.6372 49.7588 0005817 145.2685 214.8692 15.67024791 52336 TechnoSat 1 42829U 17042E 18158.83310977 .00000077 00000-0 13266-4 0 9996 2 42829 97.5976 61.5388 0013050 226.6491 133.3641 14.90822169 48937 TOMSK-TPU 120 1 42910U 98067MZ 18158.74119152 .00015406 00000-0 16509-3 0 9999 2 42910 51.6357 53.6493 0006259 164.3246 195.7944 15.64024350 45900 TANYUSHA 1 1 42911U 98067NA 18158.73057626 .00018445 00000-0 18919-3 0 9999 2 42911 51.6365 52.8647 0005977 158.6642 201.4603 15.64986013 45892 TANYUSHA 2 1 42912U 98067NB 18158.79348125 .00017172 00000-0 18044-3 0 9998 2 42912 51.6378 53.2579 0005199 168.3014 191.8103 15.64435917 45915 SFERA 2 1 42913U 98067NC 18158.52449187 .00043233 00000-0 32769-3 0 9997 2 42913 051.6338 047.6645 0004253 168.0806 192.0294 15.71908724045967 TNS 0-2 1 42914U 98067ND 18158.59363804 .00016310 00000-0 17590-3 0 9997 2 42914 051.6369 054.9539 0005304 162.5562 197.5616 15.63814608045844 QIKCOM-1 1 42983U 98067NF 18158.83208427 .00003023 00000-0 49213-4 0 9994 2 42983 51.6402 63.3437 0004557 154.4729 205.6488 15.56195334 34760 AO-91 1 43017U 17073E 18158.73528829 .00000545 00000-0 48974-4 0 9990 2 43017 97.7072 90.2587 0258518 302.6148 55.0348 14.78076787 29712 EcAMSat 1 43019U 98067NG 18158.78403706 .00004820 00000-0 72255-4 0 9994 2 43019 51.6403 63.0246 0005611 132.3913 227.7555 15.56983293117085 PICSAT 1 43132U 18004X 18158.64627352 .00001322 00000-0 59870-4 0 9995 2 43132 97.5344 221.2997 0011398 126.8886 233.3396 15.22621406 22260 AO-92 1 43137U 18004AC 18158.83234103 .00001108 00000-0 50613-4 0 9997 2 43137 97.5340 221.5074 0010888 127.6642 232.5584 15.22694921 22286 TianYi 2 1 43155U 18008A 18158.88709163 .00001345 00000-0 85135-4 0 9999 2 43155 97.5246 233.5208 0018337 171.8500 277.9390 15.10549548 21080 Zhou Enlai 1 43156U 18008B 18158.80678204 .00001437 00000-0 92142-4 0 9991 2 43156 97.5292 233.4079 0015395 167.7316 288.6511 15.10010609 21060 TianYi 6 1 43158U 18008D 18158.83209845 .00000860 00000-0 57178-4 0 9996 2 43158 97.5250 233.3027 0014400 164.3360 290.0752 15.09711562 21042 S-Net G 1 43186U 18014G 18158.52664113 -.00000314 00000-0 -22578-4 0 9995 2 43186 097.7259 067.1267 0010898 177.1148 183.0138 14.96450735018879 S-Net H 1 43187U 18014H 18158.32597096 -.00000312 00000-0 -22332-4 0 9995 2 43187 97.7257 66.9257 0010869 177.7490 182.3782 14.96451784 18847 S-Net J 1 43188U 18014J 18158.72709698 -.00000309 00000-0 -22066-4 0 9993 2 43188 97.7260 67.3259 0010915 176.4816 183.6484 14.96452451 18901 S-Net K 1 43189U 18014K 18158.52659199 -.00000310 00000-0 -22166-4 0 9995 2 43189 097.7257 067.1232 0010895 177.0833 183.0454 14.96451307017426 FMN 1 1 43192U 18015A 18158.57517588 .00002513 00000-0 11022-3 0 9993 2 43192 097.3545 287.6617 0016923 171.3722 188.7808 15.22772105019052 Shaonian Xing 1 43199U 18015H 18158.56272466 .00001770 00000-0 76502-4 0 9991 2 43199 097.3330 287.4639 0017252 185.5390 174.5661 15.23654257019077 1KUNS-PF 1 43466U 98067NP 18158.81258939 .00010231 00000-0 15404-3 0 9995 2 43466 51.6424 65.2294 0001662 92.2286 14.8195 15.55449738 4248 UBAKUSAT 1 43467U 98067NQ 18158.80034066 .00007581 00000-0 11617-3 0 9994 2 43467 51.6422 65.2890 0004098 104.1751 297.0078 15.55409039 4240 Irazu 1 43468U 98067NR 18158.59945682 .00013486 00000-0 19987-3 0 9995 2 43468 051.6422 066.2744 0001587 103.7760 256.3390 15.55571539104190 /EX
